{"data":{"norad_id":39150,"epoch":"2026-09-20T05:00:13.027104Z","epoch_age_seconds":43287,"freshness":"FRESH","line1":"1 39150U 13018A   26263.20848411 -.00000010  00000+0  58347-5 0  9991","line2":"2 39150  97.9010 333.3011 0016305 324.1354  35.8760 14.76540058722265","mean_motion":14.76540058,"eccentricity":0.0016305,"inclination_deg":97.901,"raan_deg":333.3011,"arg_perigee_deg":324.1354,"mean_anomaly_deg":35.876,"bstar":5.8347e-6,"rev_number":72226,"period_min":97.525291792659,"perigee_km":628.82330370715,"apogee_km":651.71031853522,"semimajor_km":7018.4038111212,"source":"CELESTRAK","updated_at":"2026-09-20T09:00:33.894686Z"}}